period_start,C,m1,H,J0,J1,J2,J3,J4,J5,JA,JB,JC,JD,JJ,JK,JN,#
2016-02-23 00:02:49,0.02,2.46,0.00,17.67,21.45,25.46,15.12,50.07,1040.11,2055.06,2640.42,2538.85,2877.00,599.88,620.85,46.89,0000 0000 0000 0000 000000
2016-02-23 00:07:50,0.03,2.46,0.00,17.68,21.45,25.40,15.16,50.02,1040.09,2055.07,2640.01,2538.19,2876.93,599.87,620.86,46.94,0000 0000 0000 0000 000000
2016-02-23 00:12:52,0.02,2.47,0.00,17.69,21.47,25.41,15.18,50.02,1040.15,2055.11,2639.98,2538.00,2876.25,599.90,620.90,46.99,0000 0000 0000 0000 000000
2016-02-23 00:17:53,-0.00,2.47,0.00,17.72,21.47,25.39,15.16,50.03,1040.17,2055.10,2639.98,2538.00,2876.01,599.73,620.68,47.04,0000 0000 0000 0000 000000
2016-02-23 00:22:54,0.01,2.47,0.00,17.72,21.47,25.43,15.26,50.05,1040.08,2055.04,2639.53,2537.98,2875.99,600.16,621.02,47.09,0000 0000 0000 0000 000000
2016-02-23 00:27:56,0.05,2.47,0.00,17.74,21.49,25.45,15.20,49.84,1040.07,2055.03,2638.80,2537.37,2875.67,600.31,621.15,47.14,0000 0000 0000 0000 000000
2016-02-23 00:32:57,0.02,2.47,0.00,17.76,21.49,25.43,15.14,50.11,1040.06,2055.08,2638.39,2537.01,2875.11,599.47,620.31,47.19,0000 0000 0000 0000 000000
2016-02-23 00:37:58,0.00,2.47,0.00,17.78,21.51,25.47,15.05,49.95,1040.06,2055.04,2638.29,2537.00,2875.00,599.68,620.37,47.24,0000 0000 0000 0000 000000
2016-02-23 00:42:59,0.00,2.47,0.00,17.80,21.52,25.59,15.16,49.95,1040.06,2055.02,2637.96,2536.95,2874.92,599.82,620.49,47.29,0000 0000 0000 0000 000000
2016-02-23 00:48:00,0.06,2.47,0.00,17.82,21.54,25.48,15.15,50.13,1040.06,2055.03,2637.19,2536.25,2874.28,600.04,620.72,47.34,0000 0000 0000 0000 000000
2016-02-23 00:53:01,0.00,2.47,0.00,17.84,21.57,25.52,15.16,49.96,1040.06,2055.01,2636.99,2536.00,2874.00,599.69,620.20,47.39,0000 0000 0000 0000 000000
2016-02-23 00:58:02,0.01,2.47,0.00,17.87,21.59,25.45,15.21,49.97,1040.06,2055.00,2636.92,2535.99,2873.80,600.21,620.71,47.44,0000 0000 0000 0000 000000
2016-02-23 01:03:04,0.04,2.48,0.00,17.89,21.62,25.56,15.12,50.16,1040.06,2055.00,2636.18,2535.62,2873.11,599.77,620.29,47.49,0000 0000 0000 0000 000000
2016-02-23 01:08:05,0.01,2.48,0.00,17.92,21.64,25.55,15.13,50.17,1040.06,2055.00,2636.00,2535.03,2872.99,600.33,620.92,47.55,0000 0000 0000 0000 000000
2016-02-23 01:13:07,0.02,2.48,0.00,17.97,21.68,25.58,15.12,50.22,1039.97,2054.99,2635.84,2534.97,2872.35,599.71,619.98,47.60,0000 0000 0000 0000 000000
2016-02-23 01:18:08,0.03,2.48,0.00,17.99,21.71,25.64,15.11,49.98,1039.76,2054.92,2635.24,2534.46,2872.00,600.15,620.25,47.65,0000 0000 0000 0000 000000
2016-02-23 01:23:09,-0.01,2.48,0.00,18.02,21.74,25.67,15.08,49.97,1039.76,2054.66,2634.99,2534.02,2871.76,599.68,619.74,47.70,0000 0000 0000 0000 000000
2016-02-23 01:28:10,0.01,2.48,0.00,18.07,21.77,25.72,15.17,50.15,1039.74,2054.26,2634.33,2533.94,2871.06,599.91,619.86,47.75,0000 0000 0000 0000 000000
2016-02-23 01:33:12,0.03,2.48,0.00,18.11,21.79,25.69,15.11,50.08,1039.73,2054.10,2633.61,2533.16,2870.97,600.02,619.87,47.80,0000 0000 0000 0000 000000
2016-02-23 01:38:13,0.01,2.48,0.00,18.14,21.83,25.75,15.15,50.33,1039.80,2054.03,2633.02,2532.99,2870.24,600.02,619.83,47.85,0000 0000 0000 0000 000000
2016-02-23 01:43:15,0.03,2.48,0.00,18.19,21.86,25.78,15.22,50.13,1039.76,2054.01,2632.84,2532.47,2869.98,600.26,620.00,47.90,0000 0000 0000 0000 000000
2016-02-23 01:48:16,0.04,2.49,0.00,18.22,21.89,25.82,15.12,50.23,1039.72,2054.00,2632.17,2532.02,2869.27,600.38,619.93,47.95,0000 0000 0000 0000 000000
2016-02-23 01:53:17,0.00,2.49,0.00,18.23,21.93,25.94,15.12,50.04,1039.76,2053.98,2631.98,2531.93,2868.99,599.95,619.52,48.00,0000 0000 0000 0000 000000
2016-02-23 01:58:18,0.05,2.49,0.00,18.26,21.97,25.90,15.14,50.21,1039.77,2053.91,2631.17,2531.15,2868.42,600.12,619.63,48.05,0000 0000 0000 0000 000000
2016-02-23 02:03:19,-0.01,2.49,0.00,18.31,22.01,25.97,15.16,50.15,1039.81,2053.68,2630.76,2530.98,2868.02,600.23,619.71,48.10,0000 0000 0000 0000 000000
2016-02-23 02:08:21,0.02,2.49,0.00,18.34,22.04,26.01,15.10,50.39,1039.73,2053.31,2629.95,2530.27,2867.69,600.06,619.31,48.15,0000 0000 0000 0000 000000
2016-02-23 02:13:22,0.00,2.49,0.00,18.39,22.08,26.03,15.17,50.42,1039.64,2053.09,2629.75,2530.00,2867.04,600.25,619.35,48.20,0000 0000 0000 0000 000000
2016-02-23 02:18:23,0.02,2.49,0.00,18.43,22.12,26.06,15.17,50.51,1039.71,2053.02,2629.22,2529.90,2866.86,600.12,619.30,48.25,0000 0000 0000 0000 000000
2016-02-23 02:23:24,0.04,2.49,0.00,18.46,22.16,26.09,15.14,50.28,1039.76,2053.00,2629.01,2529.22,2866.06,599.97,619.05,48.30,0000 0000 0000 0000 000000
2016-02-23 02:28:26,-0.00,2.49,0.00,18.49,22.20,26.20,15.16,50.24,1039.78,2052.99,2628.98,2529.01,2865.94,600.07,619.14,48.35,0000 0000 0000 0000 000000
2016-02-23 02:33:27,0.04,2.50,0.00,18.54,22.24,26.15,15.16,50.08,1039.92,2052.95,2628.20,2528.80,2865.19,600.36,619.40,48.40,0000 0000 0000 0000 000000
2016-02-23 02:38:29,-0.01,2.50,0.00,18.59,22.27,26.26,15.10,50.16,1039.86,2052.69,2627.81,2528.06,2864.99,599.90,618.79,48.46,0000 0000 0000 0000 000000
2016-02-23 02:43:30,-0.01,2.50,0.00,18.65,22.31,26.30,15.19,50.24,1039.93,2052.20,2627.05,2527.99,2864.50,599.86,618.68,48.51,0000 0000 0000 0000 000000
2016-02-23 02:48:31,0.01,2.50,0.00,18.69,22.35,26.34,15.14,50.27,1039.81,2052.05,2627.00,2527.76,2864.03,599.97,618.90,48.56,0000 0000 0000 0000 000000
2016-02-23 02:53:33,0.02,2.50,0.00,18.72,22.38,26.35,15.24,50.13,1039.87,2052.02,2626.98,2527.11,2863.75,600.55,619.19,48.61,0000 0000 0000 0000 000000
2016-02-23 02:58:34,0.02,2.50,0.00,18.73,22.42,26.37,15.11,50.02,1039.70,2052.00,2626.57,2526.99,2863.06,600.10,618.66,48.66,0000 0000 0000 0000 000000
2016-02-23 03:03:35,0.03,2.50,0.00,18.75,22.45,26.41,15.15,49.97,1039.72,2051.98,2625.99,2526.45,2862.91,600.11,618.55,48.71,0000 0000 0000 0000 000000
2016-02-23 03:08:37,0.02,2.50,0.00,18.82,22.48,26.46,15.10,50.05,1039.65,2051.89,2625.55,2526.01,2862.14,599.80,618.07,48.76,0000 0000 0000 0000 000000
2016-02-23 03:13:38,-0.03,2.50,0.00,18.83,22.52,26.54,15.17,50.10,1039.60,2051.48,2625.01,2525.95,2861.99,600.22,618.49,48.81,0000 0000 0000 0000 000000
2016-02-23 03:18:39,0.02,2.50,0.00,18.87,22.54,26.57,15.14,50.20,1039.58,2051.12,2624.82,2525.25,2861.64,599.79,617.98,48.86,0000 0000 0000 0000 000000
2016-02-23 03:23:40,0.02,2.50,0.00,18.91,22.57,26.58,15.11,49.95,1039.58,2051.02,2624.07,2525.00,2861.02,600.07,618.20,48.91,0000 0000 0000 0000 000000
2016-02-23 03:28:41,0.02,2.50,0.00,18.95,22.59,26.59,15.09,50.08,1039.57,2051.00,2623.60,2524.88,2860.93,599.85,617.75,48.96,0000 0000 0000 0000 000000
2016-02-23 03:33:42,0.06,2.51,0.00,18.92,22.62,26.68,15.12,50.27,1039.57,2051.00,2623.03,2524.13,2860.20,599.67,617.65,49.01,0000 0000 0000 0000 000000
2016-02-23 03:38:44,0.00,2.51,0.00,18.81,22.62,26.70,15.11,50.17,1039.57,2051.00,2623.00,2524.00,2860.00,599.81,618.15,49.06,0000 0000 0000 0000 000000
2016-02-23 03:43:45,0.00,2.51,0.00,18.81,22.64,26.67,15.13,49.96,1039.57,2051.00,2622.94,2524.00,2859.98,599.94,618.26,49.11,0000 0000 0000 0000 000000
2016-02-23 03:48:46,0.05,2.51,0.00,18.83,22.66,26.69,15.09,49.93,1039.57,2051.00,2622.15,2523.64,2859.41,600.16,618.40,49.16,0000 0000 0000 0000 000000
2016-02-23 03:53:47,0.01,2.51,0.00,18.85,22.67,26.69,15.08,50.05,1039.57,2050.99,2621.97,2523.04,2859.03,599.78,617.92,49.21,0000 0000 0000 0000 000000
2016-02-23 03:58:48,0.02,2.51,0.00,18.89,22.69,26.63,15.12,50.06,1039.57,2050.98,2621.40,2523.00,2858.99,599.91,618.02,49.26,0000 0000 0000 0000 000000
2016-02-23 04:03:49,0.03,2.51,0.00,18.93,22.71,26.62,15.01,49.92,1039.57,2050.97,2620.95,2522.78,2858.57,599.64,617.69,49.31,0000 0000 0000 0000 000000
2016-02-23 04:08:51,0.04,2.51,0.00,18.97,22.72,26.61,15.15,50.04,1039.57,2050.96,2620.22,2522.14,2858.04,600.26,618.07,49.37,0000 0000 0000 0000 000000
2016-02-23 04:13:53,0.00,2.52,0.00,19.03,22.75,26.70,15.10,50.04,1039.57,2050.98,2620.00,2522.00,2857.99,599.89,617.68,49.42,0000 0000 0000 0000 000000
2016-02-23 04:18:54,0.00,2.52,0.00,19.06,22.77,26.77,15.04,49.95,1039.57,2050.91,2619.87,2521.96,2857.72,600.32,617.92,49.47,0000 0000 0000 0000 000000
2016-02-23 04:23:55,0.02,2.52,0.00,19.10,22.80,26.76,15.04,50.10,1039.57,2050.65,2619.23,2521.39,2857.07,599.67,617.24,49.52,0000 0000 0000 0000 000000
2016-02-23 04:28:56,-0.04,2.52,0.00,19.16,22.83,26.81,15.05,50.10,1039.57,2050.17,2618.99,2521.01,2856.98,599.65,617.10,49.57,0000 0000 0000 0000 000000
2016-02-23 04:33:58,0.03,2.52,0.00,19.20,22.86,26.80,15.15,50.10,1039.57,2050.04,2618.57,2520.94,2856.38,600.44,617.90,49.62,0000 0000 0000 0000 000000
2016-02-23 04:38:59,0.03,2.52,0.00,19.24,22.89,26.85,15.10,50.07,1039.57,2050.01,2618.03,2520.39,2856.01,600.33,617.65,49.67,0000 0000 0000 0000 000000
2016-02-23 04:44:01,0.01,2.52,0.00,19.27,22.93,26.87,15.10,50.01,1039.57,2050.00,2618.00,2520.01,2855.78,600.16,617.54,49.72,0000 0000 0000 0000 000000
2016-02-23 04:49:02,0.01,2.52,0.00,19.29,22.96,26.93,15.13,50.08,1039.57,2049.99,2617.90,2520.00,2855.06,599.93,617.22,49.77,0000 0000 0000 0000 000000
2016-02-23 04:54:04,0.03,2.52,0.00,19.33,22.99,26.95,15.05,49.98,1039.57,2049.97,2617.27,2519.72,2854.99,599.76,617.04,49.82,0000 0000 0000 0000 000000
2016-02-23 04:59:05,0.01,2.52,0.00,19.37,23.02,27.02,15.05,49.98,1039.57,2049.79,2616.98,2519.09,2854.47,600.06,617.07,49.87,0000 0000 0000 0000 000000
2016-02-23 05:04:06,-0.02,2.52,0.00,19.39,23.05,27.03,15.10,49.92,1039.57,2049.29,2616.32,2518.94,2854.01,600.10,616.88,49.92,0000 0000 0000 0000 000000
2016-02-23 05:09:07,0.02,2.52,0.00,19.42,23.08,27.06,14.96,49.83,1039.57,2049.05,2615.98,2518.20,2853.83,599.48,616.52,49.97,0000 0000 0000 0000 000000
2016-02-23 05:14:09,0.02,2.52,0.00,19.43,23.11,27.05,15.12,49.98,1039.57,2049.02,2615.77,2518.00,2853.08,600.07,617.02,50.02,0000 0000 0000 0000 000000
2016-02-23 05:19:10,0.02,2.52,0.00,19.47,23.13,27.08,15.08,50.00,1039.58,2049.00,2615.06,2517.97,2852.99,600.12,616.87,50.07,0000 0000 0000 0000 000000
2016-02-23 05:24:11,0.04,2.52,0.00,19.50,23.16,27.20,15.09,49.84,1039.57,2049.00,2614.83,2517.39,2852.62,600.21,617.06,50.12,0000 0000 0000 0000 000000
2016-02-23 05:29:12,0.03,2.53,0.00,19.54,23.20,27.17,15.08,49.81,1039.57,2049.00,2614.05,2517.01,2852.05,600.20,616.90,50.17,0000 0000 0000 0000 000000
2016-02-23 05:34:13,0.00,2.53,0.00,19.57,23.23,27.22,15.12,49.96,1039.57,2048.98,2613.96,2516.98,2851.99,600.08,616.68,50.22,0000 0000 0000 0000 000000
2016-02-23 05:39:15,0.04,2.53,0.00,19.59,23.26,27.27,15.03,49.79,1039.57,2048.98,2613.61,2516.62,2851.58,599.43,615.99,50.27,0000 0000 0000 0000 000000
2016-02-23 05:44:16,0.02,2.53,0.00,19.61,23.29,27.31,15.07,49.97,1039.57,2048.92,2613.06,2516.05,2851.03,600.11,616.64,50.33,0000 0000 0000 0000 000000
2016-02-23 05:49:17,-0.05,2.53,0.00,19.63,23.33,27.36,15.04,49.92,1039.57,2048.44,2613.00,2516.00,2850.84,599.96,616.52,50.38,0000 0000 0000 0000 000000
2016-02-23 05:54:19,0.02,2.53,0.00,19.65,23.36,27.39,15.07,49.99,1039.57,2048.03,2612.72,2515.75,2850.10,599.99,616.42,50.43,0000 0000 0000 0000 000000
2016-02-23 05:59:20,0.02,2.53,0.00,19.67,23.38,27.42,15.08,49.85,1039.57,2048.00,2612.14,2515.08,2849.98,599.70,616.18,50.48,0000 0000 0000 0000 000000
2016-02-23 06:04:22,0.01,2.53,0.00,19.69,23.41,27.43,15.03,50.03,1039.57,2048.00,2611.98,2515.00,2849.67,600.36,616.75,50.53,0000 0000 0000 0000 000000
2016-02-23 06:09:23,0.04,2.53,0.00,19.71,23.43,27.45,15.07,49.96,1039.57,2047.99,2611.42,2514.73,2849.03,599.98,616.31,50.58,0000 0000 0000 0000 000000
2016-02-23 06:14:24,0.02,2.53,0.00,19.73,23.46,27.43,15.02,49.80,1039.58,2047.96,2610.97,2514.06,2848.97,599.84,616.22,50.63,0000 0000 0000 0000 000000
2016-02-23 06:19:26,0.03,2.54,0.00,19.75,23.47,27.46,15.00,49.73,1039.58,2047.96,2610.23,2513.99,2848.47,599.63,615.94,50.68,0000 0000 0000 0000 000000
2016-02-23 06:24:27,-0.02,2.54,0.00,19.78,23.50,27.50,15.11,49.80,1039.58,2047.73,2610.00,2513.79,2848.02,600.40,616.57,50.73,0000 0000 0000 0000 000000
2016-02-23 06:29:28,0.01,2.54,0.00,19.80,23.52,27.51,15.07,49.77,1039.59,2047.39,2609.70,2513.14,2847.89,599.89,616.03,50.78,0000 0000 0000 0000 000000
2016-02-23 06:34:30,0.01,2.54,0.00,19.82,23.54,27.53,15.17,49.88,1039.59,2047.14,2609.03,2513.00,2847.21,600.37,616.46,50.83,0000 0000 0000 0000 000000
2016-02-23 06:39:31,0.01,2.54,0.00,19.86,23.56,27.57,15.07,49.82,1039.58,2047.08,2608.93,2512.87,2847.00,600.34,616.20,50.88,0000 0000 0000 0000 000000
2016-02-23 06:44:32,0.04,2.54,0.00,19.87,23.59,27.58,15.09,49.79,1039.59,2047.02,2608.30,2512.14,2846.87,600.13,616.15,50.93,0000 0000 0000 0000 000000
2016-02-23 06:49:33,0.02,2.54,0.00,19.89,23.61,27.65,15.02,49.78,1039.58,2047.02,2607.94,2511.99,2846.08,599.69,615.57,50.98,0000 0000 0000 0000 000000
2016-02-23 06:54:34,0.01,2.54,0.00,19.91,23.64,27.66,15.01,49.75,1039.58,2047.00,2607.53,2511.90,2845.98,600.27,616.24,51.03,0000 0000 0000 0000 000000
2016-02-23 06:59:36,0.05,2.54,0.00,19.93,23.67,27.70,14.97,49.76,1039.57,2047.00,2607.04,2511.18,2845.53,599.96,615.83,51.08,0000 0000 0000 0000 000000
2016-02-23 07:04:37,0.00,2.54,0.00,19.95,23.70,27.75,15.08,49.91,1039.58,2047.00,2607.09,2511.01,2845.02,600.36,616.20,51.13,0000 0000 0000 0000 000000
2016-02-23 07:09:38,0.01,2.54,0.00,19.98,23.73,27.74,15.09,49.88,1039.57,2047.00,2606.88,2510.98,2844.97,599.96,615.82,51.18,0000 0000 0000 0000 000000
2016-02-23 07:14:39,0.06,2.55,0.00,20.00,23.75,27.76,15.02,49.97,1039.58,2046.99,2606.07,2510.35,2844.35,599.65,615.31,51.24,0000 0000 0000 0000 000000
2016-02-23 07:19:41,0.01,2.55,0.00,20.03,23.77,27.78,15.09,49.87,1039.58,2046.99,2605.99,2510.00,2844.01,599.89,615.61,51.29,0000 0000 0000 0000 000000
2016-02-23 07:24:42,0.00,2.55,0.00,20.05,23.80,27.80,15.07,49.92,1039.58,2046.96,2605.91,2509.99,2843.79,600.01,615.59,51.34,0000 0000 0000 0000 000000
2016-02-23 07:29:44,0.04,2.55,0.00,20.06,23.82,27.79,15.00,49.83,1039.58,2046.82,2605.13,2509.62,2843.13,599.79,615.40,51.39,0000 0000 0000 0000 000000
2016-02-23 07:34:45,-0.03,2.55,0.00,20.07,23.83,27.78,15.11,49.84,1039.58,2046.46,2604.95,2509.02,2842.99,600.16,615.84,51.44,0000 0000 0000 0000 000000
2016-02-23 07:39:46,-0.00,2.55,0.00,20.09,23.85,27.74,15.05,49.73,1039.59,2046.14,2604.27,2509.00,2842.76,600.40,615.87,51.49,0000 0000 0000 0000 000000
2016-02-23 07:44:47,0.01,2.55,0.00,20.09,23.86,27.74,15.05,49.58,1039.65,2046.10,2604.01,2508.97,2842.09,600.20,615.70,51.54,0000 0000 0000 0000 000000
2016-02-23 07:49:49,0.02,2.55,0.00,20.09,23.87,27.80,15.04,49.54,1039.59,2046.05,2603.99,2508.43,2842.01,600.06,615.61,51.59,0000 0000 0000 0000 000000
2016-02-23 07:54:50,0.00,2.55,0.00,20.12,23.87,27.72,15.00,49.64,1039.58,2046.01,2603.82,2508.05,2841.97,600.07,615.68,51.64,0000 0000 0000 0000 000000
2016-02-23 07:59:51,0.04,2.55,0.00,20.13,23.88,27.72,15.08,49.50,1039.58,2046.01,2603.12,2508.00,2841.31,600.21,615.62,51.69,0000 0000 0000 0000 000000
2016-02-23 08:04:52,0.00,2.55,0.00,20.15,23.89,27.76,15.03,49.43,1039.58,2046.00,2603.00,2507.99,2841.02,600.19,615.62,51.74,0000 0000 0000 0000 000000
2016-02-23 08:09:54,0.04,2.55,0.00,20.15,23.90,27.72,15.06,49.64,1039.58,2046.00,2602.48,2507.68,2840.99,600.10,615.37,51.79,0000 0000 0000 0000 000000
2016-02-23 08:14:55,0.01,2.56,0.00,20.15,23.90,27.70,15.04,49.74,1039.57,2046.00,2602.00,2507.09,2840.97,600.00,615.58,51.84,0000 0000 0000 0000 000000
2016-02-23 08:19:56,0.01,2.56,0.00,20.16,23.90,27.74,14.99,49.70,1039.57,2046.00,2601.81,2507.01,2840.68,599.89,615.27,51.89,0000 0000 0000 0000 000000
2016-02-23 08:24:58,0.02,2.56,0.00,20.16,23.90,27.77,15.04,49.65,1039.57,2046.00,2601.17,2507.00,2840.05,600.17,615.57,51.94,0000 0000 0000 0000 000000
2016-02-23 08:29:59,0.00,2.56,0.00,20.17,23.90,27.74,14.94,49.64,1039.57,2046.00,2601.02,2506.98,2840.00,599.76,615.18,51.99,0000 0000 0000 0000 000000
2016-02-23 08:35:00,0.01,2.56,0.00,20.18,23.91,27.80,14.95,49.63,1039.57,2046.01,2601.00,2506.88,2840.00,599.91,615.30,52.04,0000 0000 0000 0000 000000
2016-02-23 08:40:01,0.03,2.56,0.00,20.19,23.92,27.82,15.00,49.53,1039.57,2046.00,2600.99,2506.40,2839.73,599.81,614.83,52.09,0000 0000 0000 0000 000000
2016-02-23 08:45:02,0.03,2.56,0.00,20.17,23.92,27.79,15.05,49.64,1039.57,2046.00,2600.49,2506.02,2839.16,599.69,615.07,52.14,0000 0000 0000 0000 000000
2016-02-23 08:50:03,0.00,2.56,0.00,20.18,23.92,27.83,15.00,49.75,1039.57,2046.00,2600.00,2506.00,2839.01,599.73,615.16,52.20,0000 0000 0000 0000 000000
2016-02-23 08:55:05,0.00,2.56,0.00,20.19,23.93,27.77,14.97,49.66,1039.57,2046.00,2599.97,2505.97,2838.98,599.90,615.22,52.25,0000 0000 0000 0000 000000
2016-02-23 09:00:06,0.01,2.56,0.00,20.20,23.95,27.79,14.99,49.44,1039.57,2046.00,2599.92,2505.84,2838.71,599.68,614.93,52.30,0000 0000 0000 0000 000000
2016-02-23 09:05:07,0.05,2.56,0.00,20.20,23.95,27.75,15.02,49.56,1039.57,2045.99,2599.17,2505.21,2838.09,600.05,615.36,52.35,0000 0000 0000 0000 000000
2016-02-23 09:10:09,0.00,2.57,0.00,20.19,23.95,27.87,15.03,49.50,1039.57,2045.99,2599.00,2505.01,2838.00,600.25,615.50,52.40,0000 0000 0000 0000 000000
2016-02-23 09:15:10,0.00,2.57,0.00,20.18,23.95,27.83,14.96,49.55,1039.57,2045.99,2598.82,2505.00,2837.98,600.00,615.19,52.45,0000 0000 0000 0000 000000
2016-02-23 09:20:11,0.02,2.57,0.00,20.19,23.96,27.82,15.01,49.73,1039.57,2045.99,2598.08,2504.96,2837.85,600.18,615.52,52.50,0000 0000 0000 0000 000000
2016-02-23 09:25:13,0.04,2.57,0.00,20.19,23.97,27.82,15.02,49.77,1039.57,2045.99,2597.97,2504.28,2837.19,599.85,615.24,52.55,0000 0000 0000 0000 000000
2016-02-23 09:30:14,0.02,2.57,0.00,20.19,23.97,27.83,15.07,49.77,1039.57,2045.99,2597.37,2504.01,2837.01,599.92,615.28,52.60,0000 0000 0000 0000 000000
2016-02-23 09:35:15,0.01,2.57,0.00,20.20,23.97,27.81,15.02,49.70,1039.57,2045.98,2597.00,2503.98,2836.80,599.79,615.10,52.65,0000 0000 0000 0000 000000
2016-02-23 09:40:16,0.05,2.57,0.00,20.21,23.97,27.79,15.01,49.64,1039.57,2045.98,2596.52,2503.50,2836.09,600.01,615.30,52.70,0000 0000 0000 0000 000000
2016-02-23 09:45:17,0.01,2.57,0.00,20.22,23.99,27.83,15.05,49.78,1039.58,2045.98,2596.02,2503.04,2836.00,600.14,615.54,52.75,0000 0000 0000 0000 000000
2016-02-23 09:50:19,0.02,2.58,0.00,20.22,24.00,27.88,15.04,49.78,1039.57,2045.99,2595.68,2502.97,2835.74,600.00,615.21,52.80,0000 0000 0000 0000 000000
2016-02-23 09:55:20,0.04,2.58,0.00,20.20,24.00,27.89,15.08,49.96,1039.57,2045.97,2595.02,2502.41,2835.05,600.32,615.56,52.85,0000 0000 0000 0000 000000
2016-02-23 10:00:21,0.00,2.58,0.00,20.19,24.02,27.91,15.00,49.81,1039.57,2045.97,2594.99,2502.10,2835.00,599.93,615.28,52.90,0000 0000 0000 0000 000000
2016-02-23 10:05:22,0.01,2.58,0.00,20.19,24.02,27.93,15.09,49.77,1039.57,2045.94,2594.99,2502.01,2834.59,600.13,615.52,52.95,0000 0000 0000 0000 000000
2016-02-23 10:10:23,-0.00,2.58,0.00,20.19,24.04,27.91,15.06,49.86,1039.57,2045.73,2594.42,2501.98,2834.05,600.20,615.52,53.00,0000 0000 0000 0000 000000
2016-02-23 10:15:25,0.04,2.58,0.00,20.19,24.05,27.87,15.02,49.74,1039.57,2045.76,2593.98,2501.55,2833.99,599.64,614.95,53.05,0000 0000 0000 0000 000000
2016-02-23 10:20:26,-0.00,2.58,0.00,20.19,24.05,27.90,15.01,49.67,1039.56,2045.52,2593.73,2501.05,2833.52,599.95,615.35,53.11,0000 0000 0000 0000 000000
2016-02-23 10:25:28,0.02,2.58,0.00,20.21,24.06,27.97,14.99,49.80,1039.55,2045.38,2592.92,2500.96,2833.04,599.97,615.22,53.16,0000 0000 0000 0000 000000
2016-02-23 10:30:29,0.01,2.58,0.00,20.22,24.07,28.01,14.96,49.60,1039.54,2045.17,2592.89,2500.43,2832.54,599.50,614.69,53.21,0000 0000 0000 0000 000000
2016-02-23 10:35:31,0.01,2.58,0.00,20.23,24.07,27.95,14.94,49.49,1039.52,2045.04,2592.86,2500.08,2832.01,600.16,615.34,53.26,0000 0000 0000 0000 000000
2016-02-23 10:40:32,0.01,2.58,0.00,20.22,24.07,27.92,15.06,49.51,1039.34,2045.01,2592.11,2500.01,2832.00,600.53,615.64,53.31,0000 0000 0000 0000 000000
2016-02-23 10:45:33,0.00,2.58,0.00,20.22,24.07,27.92,15.10,49.63,1039.19,2045.01,2591.89,2499.96,2831.92,600.17,615.16,53.36,0000 0000 0000 0000 000000
2016-02-23 10:50:34,0.07,2.59,0.00,20.22,24.07,27.96,15.06,49.56,1039.21,2045.01,2591.05,2499.22,2831.15,599.94,615.07,53.41,0000 0000 0000 0000 000000
2016-02-23 10:55:36,0.02,2.59,0.00,20.21,24.07,27.91,15.03,49.62,1039.28,2045.05,2590.46,2499.00,2831.00,599.69,614.96,53.46,0000 0000 0000 0000 000000
2016-02-23 11:00:37,0.03,2.59,0.00,20.21,24.07,27.93,15.02,49.74,1039.48,2045.03,2589.76,2498.80,2830.63,600.12,615.38,53.51,0000 0000 0000 0000 000000
2016-02-23 11:05:38,0.04,2.59,0.00,20.20,24.07,27.89,15.00,49.59,1039.43,2045.05,2589.04,2498.09,2830.04,600.29,615.54,53.56,0000 0000 0000 0000 000000
2016-02-23 11:10:39,0.00,2.59,0.00,20.19,24.07,27.93,15.07,49.61,1039.20,2045.07,2588.72,2498.00,2829.99,600.09,615.26,53.61,0000 0000 0000 0000 000000
2016-02-23 11:15:41,0.03,2.60,0.00,20.20,24.07,27.89,15.06,49.63,1039.17,2045.16,2588.28,2498.00,2829.90,600.06,615.27,53.66,0000 0000 0000 0000 000000
2016-02-23 11:20:42,0.01,2.60,0.00,20.21,24.07,27.90,15.07,49.58,1039.13,2045.10,2588.00,2497.83,2829.20,599.99,615.07,53.71,0000 0000 0000 0000 000000
2016-02-23 11:25:43,0.01,2.60,0.00,20.21,24.07,27.88,14.98,49.55,1039.15,2045.06,2587.96,2497.19,2829.01,599.81,614.86,53.76,0000 0000 0000 0000 000000
2016-02-23 11:30:45,0.02,2.60,0.00,20.22,24.07,27.95,14.99,49.62,1039.18,2045.04,2587.28,2497.01,2829.00,599.68,614.76,53.81,0000 0000 0000 0000 000000
2016-02-23 11:35:46,0.00,2.60,0.00,20.22,24.07,27.94,15.08,49.68,1039.18,2045.04,2587.00,2497.00,2828.93,600.13,615.07,53.86,0000 0000 0000 0000 000000
2016-02-23 11:40:47,0.02,2.60,0.00,20.21,24.07,27.98,14.89,49.55,1039.13,2045.06,2586.99,2496.97,2828.27,599.19,614.27,53.91,0000 0000 0000 0000 000000
2016-02-23 11:45:49,0.01,2.60,0.00,20.19,24.07,27.90,15.01,49.59,1039.09,2045.03,2586.90,2496.79,2828.01,599.48,614.47,53.97,0000 0000 0000 0000 000000
2016-02-23 11:50:50,0.05,2.60,0.00,20.17,24.07,27.92,15.02,49.67,1039.10,2045.04,2586.11,2496.10,2828.00,600.47,615.56,54.02,0000 0000 0000 0000 000000
2016-02-23 11:55:51,-0.00,2.60,0.00,20.17,24.07,27.99,15.09,50.00,1039.09,2045.03,2585.91,2496.00,2827.97,600.22,615.39,54.07,0000 0000 0000 0000 000000
2016-02-23 12:00:52,0.01,2.60,0.00,20.17,24.07,27.94,15.00,50.03,1039.08,2045.04,2585.96,2496.00,2827.33,599.73,614.82,54.12,0000 0000 0000 0000 000000
2016-02-23 12:05:53,0.02,2.60,0.00,20.15,24.07,27.90,15.01,49.76,1039.08,2045.06,2585.33,2496.00,2827.04,599.91,615.20,54.17,0000 0000 0000 0000 000000
2016-02-23 12:10:55,-0.01,2.61,0.00,20.15,24.07,27.92,15.01,49.69,1039.09,2045.06,2585.30,2495.98,2827.01,599.63,614.62,54.22,0000 0000 0000 0000 000000
2016-02-23 12:15:56,0.01,2.61,0.00,20.17,24.07,27.89,15.07,49.59,1039.09,2045.07,2585.14,2495.94,2827.00,600.36,615.40,54.27,0000 0000 0000 0000 000000
2016-02-23 12:20:57,0.02,2.61,0.00,20.16,24.07,27.88,15.02,49.62,1039.09,2045.04,2584.99,2495.29,2826.94,599.65,614.73,54.32,0000 0000 0000 0000 000000
2016-02-23 12:25:59,0.03,2.61,0.00,20.13,24.07,27.96,15.10,49.63,1039.08,2045.02,2584.76,2495.05,2826.25,599.99,615.21,54.37,0000 0000 0000 0000 000000
2016-02-23 12:31:00,0.01,2.61,0.00,20.13,24.07,27.89,15.04,49.63,1039.08,2045.04,2584.16,2495.00,2826.03,600.17,615.30,54.42,0000 0000 0000 0000 000000
2016-02-23 12:36:01,0.00,2.61,0.00,20.14,24.05,27.91,15.08,49.58,1039.08,2045.04,2584.01,2495.00,2826.00,600.31,615.38,54.47,0000 0000 0000 0000 000000
2016-02-23 12:41:03,-0.00,2.61,0.00,20.14,24.05,27.90,14.95,49.38,1039.08,2045.05,2584.03,2495.00,2825.99,599.86,615.04,54.52,0000 0000 0000 0000 000000
2016-02-23 12:46:04,0.01,2.61,0.00,20.14,24.05,27.91,15.01,49.56,1039.08,2045.01,2583.99,2494.95,2825.61,600.13,615.26,54.57,0000 0000 0000 0000 000000
2016-02-23 12:51:05,0.04,2.61,0.00,20.14,24.05,27.88,15.01,49.63,1039.08,2045.01,2583.40,2494.57,2825.13,599.77,614.92,54.62,0000 0000 0000 0000 000000
2016-02-23 12:56:07,0.01,2.61,0.00,20.14,24.03,27.85,15.06,49.38,1039.08,2045.01,2583.01,2494.06,2825.01,599.98,615.11,54.67,0000 0000 0000 0000 000000